[[{"header":{"parameterUnit":"m.s-1","parameterCategory":1,"la1":30.2992,"la2":30.254,"lo1":-89.0895,"lo2":-89.0443,"dy":0.0025,"dx":0.0025,"nx":19,"ny":19,"refTime":"2026-05-14T21:00:00:Z","depth":0,"parameterNumber":2,"parameterNumberName":"U-component_of_WINDS"},"data":[0,0,0,-2.8048,-2.8051,-2.8183,-2.8183,-2.8354,-2.8356,0,0,0,0,0,0,0,0,0,0,0,-2.801,-2.8011,-2.8048,-2.8051,-2.8183,-2.8183,-2.8354,-2.8356,0,0,0,0,0,0,0,0,0,0,0,-2.8009,-2.8011,-2.8012,-2.8052,-2.8183,-2.8183,-2.8353,-2.8253,0,0,0,0,0,0,0,0,0,0,-2.8125,-2.8091,-2.801,-2.8012,-2.8052,-2.8183,-2.8183,-2.8248,-2.826,-2.8295,0,-2.8327,0,-2.8344,-2.8367,-2.8368,0,0,0,-2.8051,-2.8081,-2.8116,-2.8012,-2.8054,-2.8182,-2.8123,-2.8255,-2.8267,-2.831,-2.8329,-2.8335,-2.8347,-2.8368,-2.8369,-2.8574,-2.8575,0,0,-2.8043,-2.8034,-2.8107,-2.8124,-2.8103,-2.8119,-2.8127,-2.8262,-2.8283,-2.833,-2.8339,-2.8349,-2.8369,-2.8371,-2.8574,-2.8575,0,0,0,-2.8023,-2.8029,-2.806,-2.8117,-2.8141,-2.8123,-2.8132,-2.8277,-2.8288,-2.8341,-2.8351,-2.837,-2.8373,-2.8572,-2.8574,-2.8612,0,0,0,-2.8018,-2.8017,-2.8057,-2.8053,-2.8138,-2.821,-2.8144,-2.8278,-2.8294,-2.8351,-2.837,-2.8374,-2.8571,-2.8573,-2.8609,-2.8632,0,0,0,-2.8001,-2.8015,-2.8034,-2.8052,-2.8109,-2.8208,-2.8227,-2.8282,-2.83,-2.8368,-2.8375,-2.8571,-2.8573,-2.8606,-2.8627,-2.8682,0,0,0,-2.798,-2.8068,-2.8035,-2.8137,-2.8108,-2.8231,-2.8226,-2.8319,-2.8382,-2.8371,-2.8572,-2.8574,-2.8605,-2.8624,-2.8679,-2.8726,-2.8745,0,0,-2.8086,-2.8081,-2.8141,-2.8116,-2.8243,-2.8212,-2.8345,-2.8412,-2.8427,-2.8525,-2.853,-2.861,-2.8627,-2.8681,-2.8857,-2.8872,0,0,0,-2.8172,-2.8215,-2.8251,-2.831,-2.8362,-2.8409,-2.8456,-2.8481,-2.8563,-2.8475,-2.8646,-2.8656,-2.8689,-2.8711,-2.8724,-2.8752,-2.8584,-2.8584,-2.8584,-2.8309,-2.8323,-2.8424,-2.8453,-2.8511,-2.8558,-2.8605,-2.8647,-2.8645,-2.8685,-2.8714,-2.8819,-2.8845,-2.8855,-2.8884,-2.8741,-2.8741,-2.8741,-2.8741,-2.8464,-2.8527,-2.8522,-2.8618,-2.8632,-2.8714,-2.8763,-2.8759,-2.8836,-2.8799,-2.8828,-2.8784,-2.8871,-2.8897,-2.8744,-2.8744,-2.8744,-2.8743,-2.8743,-2.8554,-2.8586,-2.8614,-2.87,-2.8765,-2.8792,-2.8867,-2.8878,-2.8889,-2.8918,-2.8948,-2.8948,-2.8947,-2.8932,-2.8932,-2.8933,-2.8933,-2.8933,-2.8934,-2.8635,-2.8666,-2.8726,-2.8789,-2.8827,-2.888,-2.8928,-2.8967,-2.9012,-2.9014,-2.9015,-2.9008,-2.8877,-2.8843,-2.8939,-2.8938,-2.8937,-2.8937,-2.8937,-2.8785,-2.8753,-2.8847,-2.8885,-2.8959,-2.9022,-2.9035,-2.9113,-2.9146,-2.9183,-2.917,-2.9072,-2.9067,-2.9057,-2.9029,-2.9168,-2.9168,-2.9168,-2.9168,-2.886,-2.8859,-2.8956,-2.9017,-2.9078,-2.9099,-2.9205,-2.9243,-2.9278,-2.9299,-2.9281,-2.9245,-2.9235,-2.9236,-2.9222,-2.9196,-2.9374,-2.9374,-2.9375,-2.8952,-2.8957,-2.9044,-2.9077,-2.9135,-2.9185,-2.9284,-2.9355,-2.9388,-2.9383,-2.9316,-2.9307,-2.925,-2.923,-2.9223,-2.9201,-2.9153,0,0]},{"header":{"parameterUnit":"m.s-1","parameterCategory":1,"la1":30.2992,"la2":30.254,"lo1":-89.0895,"lo2":-89.0443,"dy":0.0025,"dx":0.0025,"nx":19,"ny":19,"refTime":"2026-05-14T21:00:00:Z","depth":0,"parameterNumber":3,"parameterNumberName":"V-component_of_WINDS"},"data":[0,0,0,3.4561,3.4563,3.4625,3.4626,3.4723,3.4724,0,0,0,0,0,0,0,0,0,0,0,3.4554,3.4556,3.4561,3.4563,3.4625,3.4626,3.4723,3.4724,0,0,0,0,0,0,0,0,0,0,0,3.4554,3.4555,3.4557,3.4563,3.4625,3.4626,3.4723,3.4669,0,0,0,0,0,0,0,0,0,0,3.4605,3.4611,3.4555,3.4557,3.4564,3.4625,3.4626,3.4666,3.4672,3.4703,0,3.4734,0,3.4731,3.4732,3.4732,0,0,0,3.4554,3.4606,3.4612,3.4557,3.4564,3.4625,3.4595,3.4669,3.4676,3.4711,3.4735,3.4738,3.4732,3.4733,3.4733,3.4939,3.494,0,0,3.455,3.4572,3.4607,3.4617,3.461,3.4593,3.4597,3.4673,3.4701,3.4735,3.474,3.4734,3.4733,3.4734,3.4938,3.4939,0,0,0,3.4546,3.457,3.4574,3.4614,3.4624,3.4595,3.4599,3.4697,3.4697,3.4741,3.4735,3.4734,3.4735,3.4936,3.4938,3.5027,0,0,0,3.4544,3.4568,3.4573,3.4587,3.4623,3.4662,3.4622,3.4691,3.4699,3.4735,3.4734,3.4737,3.4935,3.4937,3.5021,3.5065,0,0,0,3.4546,3.4568,3.4581,3.4588,3.4616,3.466,3.4663,3.4692,3.4696,3.4732,3.4737,3.4934,3.4937,3.5016,3.5056,3.5123,0,0,0,3.4555,3.4661,3.4583,3.4698,3.4615,3.4715,3.4663,3.4736,3.4777,3.4735,3.4935,3.4938,3.5014,3.5051,3.5118,3.5183,3.5212,0,0,3.47,3.4679,3.4745,3.4677,3.4796,3.4704,3.4835,3.4852,3.4836,3.4905,3.491,3.5023,3.5056,3.5122,3.5373,3.5397,0,0,0,3.4798,3.4845,3.4872,3.4913,3.4929,3.4945,3.494,3.4946,3.5003,3.4877,3.5066,3.5084,3.5123,3.5152,3.5172,3.5203,3.4953,3.4953,3.4953,3.5034,3.5007,3.5113,3.5092,3.5132,3.5125,3.5154,3.5161,3.5123,3.5168,3.5188,3.5343,3.5379,3.5394,3.5426,3.5221,3.5221,3.5222,3.5222,3.5243,3.5304,3.5249,3.5332,3.5302,3.5371,3.5367,3.5337,3.5396,3.5327,3.5359,3.5284,3.5421,3.5447,3.5228,3.5227,3.5226,3.5226,3.5225,3.5393,3.5417,3.5423,3.5476,3.5521,3.5496,3.5554,3.5525,3.5498,3.553,3.5546,3.5545,3.5538,3.554,3.5541,3.5541,3.5542,3.5542,3.5542,3.5546,3.5549,3.5602,3.5626,3.5646,3.567,3.5662,3.5681,3.5695,3.5669,3.5669,3.5625,3.544,3.5393,3.5551,3.5549,3.5548,3.5547,3.5547,3.5765,3.571,3.5792,3.5812,3.5836,3.588,3.5842,3.5883,3.5895,3.5924,3.5873,3.5742,3.5717,3.5701,3.5662,3.588,3.588,3.588,3.588,3.589,3.5875,3.595,3.5984,3.6015,3.5987,3.6078,3.6073,3.6058,3.6063,3.6028,3.5974,3.5959,3.5943,3.5922,3.5885,3.6154,3.6154,3.6155,3.6022,3.6008,3.6091,3.6076,3.6092,3.6106,3.6189,3.623,3.6202,3.6165,3.6066,3.6054,3.5967,3.594,3.59,3.5868,3.5799,0,0]}]]